GFSSE_850_spd_336.txt.gz
Wind_Speed
22 25 21 21 20 18 18 18 18 18 18 15 13 12 11 12 13 13 11 10 8 7 6 5 4 2 1 1 1 1 3 5 4 3 3 2 2 4 7 11 11 7 5
24 24 22 22 18 18 18 17 16 14 14 14 12 12 13 12 11 11 10 9 7 6 5 4 4 4 3 3 3 3 4 6 6 5 6 7 5 6 5 6 9 6 6
25 25 25 22 18 18 17 15 15 14 13 12 13 13 13 13 12 11 10 8 7 7 5 4 4 3 3 2 3 4 6 8 8 8 6 9 11 6 5 8 7 5 6
26 26 25 20 19 17 16 14 14 13 13 12 13 12 12 11 12 10 8 7 6 5 4 3 3 2 2 2 2 3 4 7 10 5 6 10 8 2 4 7 7 6 7
24 23 23 19 18 17 16 14 14 12 12 12 11 11 10 9 8 7 5 4 3 3 3 3 3 3 3 4 4 4 4 5 9 4 6 8 9 6 3 5 6 5 6
26 24 22 19 18 17 15 14 13 12 11 11 10 9 8 6 5 4 4 4 4 3 4 4 4 4 4 4 5 5 6 7 9 4 5 3 3 3 1 5 8 7 8
29 19 21 20 18 17 14 13 12 11 10 10 9 7 5 4 3 3 3 3 3 2 2 2 3 3 4 4 4 4 5 7 9 7 3 3 9 6 3 5 7 8 7
24 20 20 21 19 17 14 12 10 9 9 8 6 4 3 3 4 4 3 3 2 2 1 1 2 2 3 4 3 3 4 6 12 7 4 9 1 6 4 4 6 6 8
23 20 21 20 19 16 14 11 9 8 7 6 3 3 4 5 5 4 3 2 2 1 1 2 3 4 4 4 4 3 3 3 7 9 7 13 6 6 5 5 6 7 9
22 18 17 18 16 14 12 10 8 7 6 4 3 5 7 5 4 1 1 4 4 3 4 3 3 1 1 2 2 2 4 7 11 8 8 4 4 6 11 11 8 7 9
23 20 18 15 12 10 6 7 6 6 4 3 4 7 6 2 1 3 5 6 5 5 4 3 2 2 2 3 2 2 4 6 6 9 5 3 7 11 12 12 10 9 8
23 20 20 16 15 11 14 7 5 4 3 3 2 3 4 3 2 1 3 5 3 4 5 3 2 3 5 9 6 7 8 6 3 6 4 3 7 9 6 9 9 9 10
20 18 19 17 15 14 16 9 2 7 1 5 10 9 5 4 8 4 8 6 7 12 4 7 10 8 1 7 4 5 5 6 9 9 8 4 6 6 7 7 7 9 10
21 19 19 18 18 17 14 10 9 9 9 9 8 7 9 11 8 4 8 4 7 3 6 4 6 5 7 12 6 1 3 6 6 18 8 2 5 4 2 2 5 6 8
22 20 19 22 21 19 16 13 12 11 10 8 10 7 6 8 8 12 9 7 7 6 8 6 6 3 6 9 11 7 8 7 5 10 9 4 4 5 5 4 3 1 3
22 21 19 21 23 24 20 17 17 14 9 13 11 12 7 11 12 10 7 7 4 5 7 4 7 6 4 7 7 11 9 8 16 5 6 1 2 3 5 5 4 3 2
24 22 21 19 19 23 22 23 16 12 11 11 12 15 13 11 9 11 11 10 7 6 6 8 6 6 8 7 7 12 13 6 4 5 5 3 1 2 6 7 5 4 4
22 23 22 21 19 18 20 18 14 14 14 11 12 16 16 11 11 10 10 9 12 7 7 5 12 11 8 5 9 14 6 8 9 4 10 7 2 1 4 4 7 6 6
22 25 24 21 21 20 17 17 16 13 15 15 14 15 18 10 10 13 11 8 10 9 10 14 10 9 7 11 9 10 3 5 8 15 10 5 5 0 5 4 6 6 7
24 24 27 23 22 22 18 17 14 15 15 14 14 14 16 13 14 10 8 11 9 7 17 13 14 6 9 10 13 9 5 9 6 19 14 10 11 7 7 4 5 4 6
24 25 26 27 26 22 21 19 19 16 16 16 14 16 14 14 13 13 12 11 12 14 18 12 7 8 13 8 15 4 11 8 8 9 14 14 20 9 9 9 4 4 4
27 29 26 28 28 28 24 18 17 18 17 15 16 17 21 17 17 13 9 11 13 12 17 4 8 15 12 11 6 5 4 12 17 15 16 25 17 4 9 11 8 7 6
30 32 30 29 30 29 25 21 19 19 17 18 18 16 20 20 18 16 15 11 10 8 7 8 9 10 7 5 1 2 9 10 8 9 20 12 13 7 12 15 11 11 7
32 33 31 30 30 27 27 23 22 21 19 18 15 16 19 19 19 17 12 15 14 11 8 13 8 12 10 5 4 4 7 6 5 1 1 6 12 17 15 11 15 13 10
32 33 32 30 31 28 28 28 24 24 19 18 18 18 18 17 20 13 15 17 15 12 14 13 12 11 12 6 4 6 5 6 5 7 17 14 16 16 13 9 17 15 12
33 33 34 34 32 32 29 30 28 24 22 21 18 18 17 18 21 16 19 19 12 10 15 17 11 9 12 10 9 7 8 6 5 7 8 13 11 11 15 10 11 14 14

GFSSE_850_spd_339.txt.gz
Wind_Speed
25 25 24 22 19 19 20 20 19 19 18 15 13 13 14 15 14 14 13 12 10 8 7 7 6 4 3 3 3 4 6 7 6 4 3 3 4 5 8 9 9 9 7
30 28 24 22 20 19 19 19 18 15 14 13 12 11 13 14 13 13 12 9 9 8 7 5 4 4 4 4 3 4 4 7 7 7 7 7 6 5 7 6 5 8 6
31 29 25 21 20 19 18 16 15 13 13 13 14 14 13 13 12 11 10 8 7 6 5 4 4 4 4 4 5 6 8 8 9 11 10 10 8 6 4 7 7 6 8
31 30 26 22 21 19 17 16 14 13 13 14 14 14 13 13 12 11 10 8 6 5 4 3 2 2 3 4 4 7 8 9 9 9 7 5 6 8 5 5 5 6 8
32 30 26 23 20 19 17 15 14 13 14 14 13 11 11 10 9 8 7 6 5 4 3 3 3 3 3 4 4 6 9 9 8 4 5 11 8 5 6 5 6 8 10
30 28 25 23 21 18 16 15 15 13 13 12 12 11 9 7 6 5 4 4 4 4 4 4 4 5 5 5 6 7 8 11 10 4 2 9 4 4 4 7 9 9 10
25 25 24 23 20 18 15 14 13 12 11 11 11 9 7 5 4 4 4 4 4 4 4 4 5 5 5 5 6 7 8 10 13 9 11 10 6 5 4 8 11 11 10
23 22 22 21 19 17 15 14 12 11 10 10 8 6 5 5 4 5 4 4 3 2 2 2 3 4 4 5 5 6 7 10 15 14 8 8 7 7 7 9 10 12 12
24 19 20 21 20 18 16 14 12 11 10 8 6 5 6 6 5 5 4 4 2 1 1 2 3 4 4 4 4 5 6 9 16 13 10 8 11 13 7 6 9 11 11
22 22 21 21 19 17 15 13 11 10 8 7 6 7 8 7 5 3 3 2 2 2 3 3 3 2 2 3 5 5 7 9 11 13 10 6 12 12 8 8 10 10 11
17 22 23 20 18 15 13 11 9 8 7 6 8 11 8 4 2 3 4 4 3 2 4 1 2 2 3 3 3 5 8 9 13 13 7 7 6 9 9 11 13 14 12
20 17 18 20 18 17 14 10 6 8 7 6 9 11 5 4 3 1 2 5 5 6 4 4 5 6 6 6 7 6 11 9 11 12 7 10 7 7 9 11 14 15 13
16 18 16 13 14 14 15 10 4 10 9 6 5 7 8 3 3 2 7 5 7 8 5 6 2 3 4 5 5 7 7 10 10 10 10 9 7 7 10 10 12 13 12
21 23 17 16 14 13 12 14 8 8 10 9 4 4 9 9 6 3 6 5 6 5 5 8 2 4 3 8 6 5 5 8 12 14 14 7 2 4 5 7 9 10 10
25 24 21 23 18 16 16 16 12 12 12 10 8 7 7 9 6 6 6 6 8 8 9 4 4 5 4 6 10 7 6 7 7 10 12 5 1 3 2 1 3 5 7
28 25 26 26 24 21 20 19 19 15 12 13 12 9 7 7 6 7 8 8 9 8 10 9 8 7 6 7 11 10 6 6 9 11 12 2 1 2 3 3 1 1 2
31 28 28 30 29 26 28 25 24 21 18 13 13 13 14 8 9 11 10 10 7 5 7 8 14 10 11 13 10 15 14 13 8 20 17 8 4 0 3 4 2 2 1
33 31 31 28 29 25 27 29 26 23 23 13 10 16 11 12 8 6 7 10 11 11 9 12 11 12 9 11 5 9 7 13 10 14 19 11 6 1 3 2 4 3 3
32 31 31 28 25 22 17 26 27 24 20 18 15 16 16 18 13 5 8 7 9 10 14 14 15 12 11 8 9 9 11 8 15 9 10 12 11 5 5 6 5 3 5
28 30 32 29 26 23 20 17 21 19 22 22 19 20 14 23 15 7 9 10 11 16 12 14 11 12 10 8 8 6 12 14 10 6 13 13 16 9 6 7 6 2 4
31 30 33 32 29 25 25 22 19 21 19 16 21 18 13 17 10 10 13 14 10 13 15 11 14 9 8 6 6 3 7 7 9 12 18 11 17 18 13 9 5 4 5
32 33 32 33 31 29 27 26 21 20 21 15 14 14 16 15 15 15 13 13 11 12 10 12 16 10 7 11 7 5 6 10 14 17 14 20 26 21 15 15 9 7 6
37 36 33 32 33 31 30 25 21 20 18 20 19 17 20 20 19 18 17 15 14 13 7 8 11 12 5 2 7 5 5 6 13 12 23 19 25 25 18 16 11 10 8
39 36 34 33 31 35 32 30 25 23 23 22 22 18 21 18 18 17 12 16 14 14 15 10 14 10 8 5 8 6 9 7 8 4 23 19 17 15 17 18 19 15 12
41 39 36 33 30 29 35 32 28 26 25 23 18 17 16 19 21 17 13 15 15 16 17 16 11 10 7 12 11 9 10 9 11 10 11 9 16 16 15 15 18 18 14
42 40 37 35 32 27 31 32 31 27 25 23 21 20 21 20 21 20 19 18 18 18 14 12 13 17 17 16 14 13 9 8 9 11 9 8 13 14 18 19 21 20 17

GFSSE_850_spd_342.txt.gz
Wind_Speed
29 26 23 22 21 22 22 22 22 21 20 19 16 16 17 17 16 15 14 13 12 11 9 8 7 6 5 5 6 8 9 8 7 6 6 6 6 6 8 9 10 11 10
33 29 25 22 21 21 21 21 21 20 19 14 14 15 16 16 15 14 13 11 9 9 8 7 6 6 5 5 5 5 8 10 10 9 7 8 9 9 7 7 7 9 10
33 31 27 23 22 21 21 19 18 16 14 12 12 13 14 15 14 12 12 10 9 8 8 7 6 5 5 5 4 4 6 9 9 8 7 6 7 9 8 6 6 7 10
35 31 28 24 22 21 19 16 15 14 13 14 13 13 13 13 12 11 10 9 9 7 6 6 5 4 5 5 4 5 7 8 9 8 8 4 4 6 7 7 7 5 7
34 31 27 25 22 20 18 16 14 13 14 14 13 12 13 12 11 10 8 7 6 6 5 5 5 6 6 6 6 6 7 7 9 8 5 11 8 6 6 7 6 6 8
33 30 27 25 22 19 17 16 15 14 14 13 13 12 10 9 8 8 7 6 6 6 6 6 6 7 7 7 8 9 9 8 8 7 6 9 4 5 6 6 7 8 9
33 28 26 24 22 19 17 16 15 15 14 13 12 10 9 7 6 6 6 5 5 5 5 5 5 5 6 6 7 8 10 10 11 8 6 5 5 5 5 6 8 10 10
30 27 25 23 21 20 18 17 15 14 13 12 11 8 7 6 6 5 5 5 4 4 4 4 4 5 6 5 5 6 9 11 13 11 6 7 6 7 6 6 8 12 11
24 24 24 23 22 20 18 16 14 13 13 11 9 7 7 6 6 5 4 4 3 2 2 4 4 4 5 5 5 6 7 9 13 13 7 5 6 6 6 6 9 11 12
27 25 23 21 21 20 18 16 14 13 12 10 8 8 8 8 6 5 4 2 1 2 3 5 4 3 5 6 6 6 8 8 10 12 12 8 8 11 9 8 11 11 12
26 26 24 22 20 18 16 15 13 13 11 10 10 11 9 6 6 5 4 1 1 3 3 5 5 5 5 6 6 7 8 7 10 13 13 9 9 12 14 11 13 13 13
28 25 24 22 20 19 17 15 12 12 10 9 12 13 8 6 4 3 2 2 1 5 5 4 4 6 6 6 6 6 9 8 11 12 10 10 12 10 13 14 13 15 16
22 22 23 22 20 19 17 16 11 12 10 10 12 13 8 6 7 5 4 7 6 7 5 6 5 2 3 1 3 6 8 8 9 9 11 11 12 13 13 14 13 14 16
25 18 20 19 20 19 19 15 10 14 11 9 7 8 12 8 10 5 5 5 5 5 6 7 6 3 4 4 7 6 6 7 10 12 13 8 10 12 10 11 11 12 13
26 22 22 21 20 14 18 14 13 13 12 9 8 4 7 9 7 7 7 5 6 7 9 7 6 3 4 3 5 8 9 10 10 9 12 8 6 5 5 6 7 9 11
25 24 23 25 21 18 14 13 13 12 9 15 12 5 6 8 7 10 9 9 7 10 8 12 11 3 5 4 4 9 11 11 6 9 11 7 9 3 3 3 4 6 7
28 25 27 26 24 22 18 16 15 16 13 14 11 10 9 10 9 9 9 8 10 9 10 11 11 9 4 7 9 8 12 18 11 12 13 10 11 8 4 4 3 4 5
33 33 29 27 29 26 23 22 21 20 22 12 11 12 14 14 15 7 10 13 12 12 11 11 12 8 8 8 8 14 15 16 9 12 13 16 14 12 10 6 5 4 3
38 38 34 31 31 30 28 25 26 25 26 23 19 18 17 16 15 10 8 8 13 13 14 13 14 12 9 7 5 8 15 14 13 13 16 19 14 15 14 11 7 6 4
38 39 38 36 33 31 28 23 21 30 27 24 23 20 17 16 21 16 11 11 14 14 13 14 13 11 9 6 8 8 11 14 8 17 14 16 16 16 15 14 9 7 5
36 40 41 38 35 32 29 27 23 21 26 26 27 22 18 17 17 17 13 11 15 18 14 12 11 12 12 8 9 9 9 16 14 17 21 21 20 19 15 15 11 9 10
38 38 41 38 35 34 32 29 25 19 19 22 26 24 18 14 12 16 16 14 14 12 11 11 9 9 9 10 10 11 5 12 21 20 20 26 20 21 16 14 11 10 8
42 39 39 37 36 35 32 28 24 20 17 22 20 22 19 14 16 18 16 17 17 14 14 10 8 9 9 9 9 8 5 7 7 16 17 25 25 20 19 18 15 12 8
45 40 39 38 37 35 32 30 29 27 23 23 20 17 17 20 21 20 17 18 17 16 13 12 14 12 10 10 8 11 10 13 7 6 9 16 18 15 21 22 19 16 13
46 44 41 39 37 34 32 31 30 28 23 22 21 18 18 17 20 18 18 19 18 16 15 15 13 12 12 12 12 11 11 12 11 10 5 5 12 16 20 20 21 20 17
46 45 42 41 39 36 31 29 30 28 24 24 23 22 17 17 18 21 22 19 17 19 17 16 13 12 13 14 13 15 14 11 10 7 7 4 6 8 14 16 13 14 18

GFSSE_850_spd_345.txt.gz
Wind_Speed
29 28 26 24 21 21 21 21 20 19 18 18 17 17 17 16 14 14 14 13 13 12 10 8 7 6 5 5 6 6 7 6 5 5 5 4 3 3 5 7 7 7 8
33 29 27 25 23 22 22 22 21 19 17 16 16 16 16 15 14 13 12 12 11 9 7 7 6 5 5 5 5 6 8 8 7 6 5 4 4 5 6 7 7 8 8
33 30 27 25 24 23 22 21 19 18 17 13 14 15 15 14 14 13 12 10 9 8 7 6 5 4 4 3 3 4 5 6 7 6 4 4 4 6 6 5 6 6 8
32 30 27 25 24 23 22 20 19 18 16 14 14 14 15 15 13 12 10 9 8 7 6 5 5 4 4 3 3 3 4 5 6 6 5 4 3 5 6 6 7 4 6
32 29 26 25 23 23 22 19 17 16 15 14 13 14 14 13 12 11 10 9 7 6 6 5 5 5 5 5 5 4 5 5 6 6 6 9 9 5 5 6 5 4 6
32 28 26 24 22 21 19 17 16 15 15 14 13 13 12 11 10 9 7 7 6 6 6 6 7 7 7 7 7 7 7 6 7 6 3 5 5 5 6 6 6 5 7
32 28 25 23 21 19 18 16 15 15 15 14 12 11 10 9 8 6 6 6 5 6 6 6 6 6 6 7 7 8 9 8 9 7 6 6 4 4 6 7 8 7 7
29 27 25 22 21 19 17 16 16 15 14 13 12 10 8 7 6 6 5 4 4 4 4 4 4 5 5 5 5 7 8 10 10 9 6 6 5 7 8 8 8 8 9
26 25 24 23 21 19 17 16 15 14 13 12 11 9 8 7 6 5 5 4 3 3 3 3 4 5 5 6 6 6 7 9 10 9 8 6 4 5 9 9 8 8 8
26 24 23 22 21 20 18 17 15 13 12 12 10 8 8 7 6 5 5 3 2 3 4 5 5 6 7 8 7 7 7 8 9 11 9 8 5 8 10 10 9 9 9
30 27 25 23 21 19 17 16 14 13 12 12 10 9 9 8 6 5 4 2 3 4 5 6 6 5 5 5 6 7 8 7 9 9 8 7 7 7 8 12 9 11 11
30 27 25 24 21 19 17 16 14 13 12 11 10 11 9 7 6 5 4 2 4 4 3 3 4 5 6 5 5 7 7 8 9 9 8 5 8 9 9 11 12 11 13
25 26 25 24 22 20 18 15 14 13 11 10 12 13 9 7 6 5 3 5 6 9 5 4 2 2 4 5 7 9 8 9 9 8 9 9 10 11 12 11 12 13 13
25 22 24 24 23 20 17 15 13 13 12 8 10 12 10 7 8 7 5 5 4 4 6 7 6 3 6 7 9 9 9 11 11 11 12 10 11 11 11 9 10 12 13
27 24 22 23 23 21 19 18 13 15 12 9 8 6 7 9 8 6 8 7 6 6 8 6 7 7 7 7 10 12 12 11 13 12 9 11 10 7 8 9 8 8 10
27 25 22 21 20 19 17 21 13 14 12 11 11 8 6 6 9 7 9 7 8 9 9 9 8 8 9 8 9 11 14 15 13 13 9 11 7 6 2 5 7 6 6
30 27 26 22 22 21 17 19 18 16 14 11 13 12 9 8 9 10 9 8 9 10 10 9 10 10 11 9 10 13 18 15 13 12 9 10 9 7 4 4 3 5 5
31 31 27 26 26 24 22 20 18 17 17 14 13 11 11 12 11 12 12 11 12 12 10 11 11 10 11 12 10 9 16 20 13 11 11 14 12 10 7 5 4 4 4
35 34 33 30 30 28 25 23 20 19 19 17 17 14 12 14 15 16 13 10 9 13 14 16 16 13 14 13 12 11 12 14 12 13 11 12 14 14 10 8 5 5 3
37 37 36 32 33 32 29 26 24 24 23 21 23 22 18 16 15 16 17 11 13 13 13 15 15 14 15 9 12 13 16 15 16 17 16 13 17 17 11 9 9 6 5
42 41 41 38 35 34 33 32 28 27 23 26 27 25 24 19 15 16 16 15 12 14 16 17 15 14 15 14 14 16 15 15 14 17 17 18 16 16 12 12 11 9 8
46 47 44 43 40 37 34 32 30 26 24 19 23 27 26 21 15 14 10 12 13 14 12 11 13 9 9 10 14 16 15 14 18 21 20 21 16 19 15 16 14 10 11
46 47 46 45 44 39 35 35 33 30 26 19 19 23 28 23 18 13 15 14 14 16 13 14 12 11 10 12 14 13 6 5 10 7 18 21 22 26 17 17 16 12 11
47 44 44 41 42 41 37 36 35 33 29 22 19 20 23 24 21 18 19 18 16 16 14 14 13 14 14 15 13 15 15 16 8 7 6 17 20 19 17 20 22 18 13
46 44 44 41 39 40 38 37 35 33 29 21 16 20 21 22 20 21 17 21 18 18 16 16 16 14 16 14 15 16 15 15 13 15 9 7 15 21 18 21 21 20 16
43 45 44 43 39 39 38 37 35 32 28 24 19 26 25 21 16 16 16 18 21 21 19 20 16 16 14 15 16 17 17 15 14 14 10 9 7 13 9 14 18 16 16